Regional Weather Roundup
Issued by NWS Burlington, VT

Home | Current Version | Previous Version | Text Only | Print | Product List | Glossary On
Versions: 1 2 3 4 5 6 7 8 9 10 11 12 13 14 15 16 17 18 19 20 21 22 23 24 25 26 27 28 29 30 31 32 33 34 35 36 37 38 39 40 41 42 43 44 45 46 47 48 49 50
000
ASUS41 KBTV 171930
RWRBTV
VERMONT REGIONAL WEATHER ROUNDUP
NATIONAL WEATHER SERVICE BURLINGTON VT
200 PM EST SAT FEB 17 2018

NOTE: "FAIR" INDICATES FEW OR NO CLOUDS BELOW 12,000 FEET WITH NO
SIGNIFICANT WEATHER AND/OR OBSTRUCTIONS TO VISIBILITY.

* THESE REPORTS ARE NOT UNDER NWS QUALITY CONTROL AND/OR DO NOT
  REPORT WEATHER SUCH AS PRECIPITATION AND FOG.

VTZ001>019-172000-
_____VERMONT_____


CITY           SKY/WX    TMP DP  RH WIND       PRES   REMARKS
BURLINGTON     PTSUNNY   32   9  38 S12       30.22F WCI  23
MONTPELIER     FAIR      29   6  38 S9        30.22F WCI  20
MORRISVILLE    FAIR      30   6  36 VRB6      30.21F WCI  24
ST. JOHNSBURY*   N/A     29   5  36 MISG      30.21F
LYNDONVILLE*   FAIR      27   3  36 SE6       30.21S WCI  20
MIDDLEBURY*    FAIR      31  10  41 S7        30.23S WCI  24
RUTLAND*       FAIR      33   9  36 W5        30.22F WCI  29
SPRINGFIELD    FAIR      32   9  38 S6        30.25F WCI  26
HIGHGATE*      FAIR      30  12  46 S8        30.22F WCI  22
NEWPORT*       FAIR      28   6  38 S5        30.20R WCI  23
BENNINGTON     FAIR      36  12  37 S13       30.21F WCI  27
ISLAND POND*     N/A     28 N/A N/A SW5         N/A  WCI  23
GALLUP MILLS*    N/A     28 N/A N/A MISG        N/A
UNION VILLAGE*   N/A     34 N/A N/A MISG        N/A
MT. MANSFIELD*   N/A     18 N/A N/A SW14G25     N/A  WCI   4

_____LAKE CHAMPLAIN_____


CITY           SKY/WX    TMP DP  RH WIND       PRES   REMARKS
BURTON ISLAND*   N/A     30  18  59 SW9G15      N/A  WCI  22
COLCHESTER RF*   N/A     32  16  51 S21         N/A  WCI  20

$$

NYZ007-026>031-035-052-083-087-172000-
_____NORTHERN NEW YORK_____


CITY           SKY/WX    TMP DP  RH WIND       PRES   REMARKS
PLATTSBURGH    FAIR      30  15  53 SE14      30.22F WCI  19
SARANAC LAKE   FAIR      27   7  42 SW14      30.10F WCI  16
MASSENA        FAIR      29  13  51 S10       30.20F WCI  20
OGDENSBURG*    FAIR      33  16  49 S7        30.15F WCI  26
POTSDAM*       SUNNY     28  12  50 W3        30.17F
STARK FALLS*     N/A     28 N/A N/A S7          N/A  WCI  21
WATERTOWN      FAIR      31  16  54 VRB6      30.15F WCI  25
FT DRUM        FAIR      29  16  57 SE8       30.13F WCI  21
ALBANY         CLOUDY    34  14  43 S7        30.26F WCI  28
GLENS FALLS    FAIR      30  15  53 SE8       30.26F WCI  22

$$
NHZ002-005-011-172000-
_____NEW HAMPSHIRE_____


CITY           SKY/WX    TMP DP  RH WIND       PRES   REMARKS
LEBANON        FAIR      34   7  32 SW12      30.24F WCI  25
KEENE          FAIR      37   7  28 S9        30.25F WCI  30
MT WASHINGTON  PTSUNNY    9 -11  40 W25         N/A  WCI -13
PLYMOUTH       FAIR      34   4  28 S5        30.27R WCI  30
WHITEFIELD     FAIR      31   2  29 NW7       30.18F WCI  24

$$

_____REGIONAL QUEBEC LOCATIONS_____


CITY           SKY/WX    TMP DP  RH WIND       PRES   REMARKS
MONTREAL       CLOUDY    25  12  58 SW6       30.22F WCI  18
QUEBEC CITY    CLOUDY    23   9  54 SW8       30.23F WCI  14
SHERBROOKE     SUNNY     27   3  36 SW10      30.19F WCI  17

_____REGIONAL ONTARIO LOCATIONS_____


CITY           SKY/WX    TMP DP  RH WIND       PRES   REMARKS
OTTAWA         CLOUDY    28  16  59 S14       30.14F WCI  17

______KEY______
VSB  - VISIBILITY IN MILES
WCI  - WIND CHILL INDEX
HX   - HEAT INDEX
$$
NNNN




USA.gov is the U.S. government's official web portal to all federal, state and local government web resources and services.